| time (UTC) | temp C | wind direction | speed KPH | gust KPH | rain 1hr cm | rain 24hr cm | rain mn cm | humidity % | barometer mb |
| 20260507214138 | 3 | 20 | 0.0 | 0.0 | 0.00 | 0.00 | 0.00 | 77 | 1019.5 |
| 20260507213127 | 3 | 20 | 0.0 | 0.0 | 0.00 | 0.00 | 0.00 | 76 | 1019.4 |
| 20260507212130 | 3 | 20 | 0.0 | 0.0 | 0.00 | 0.00 | 0.00 | 75 | 1019.5 |
| 20260507211148 | 4 | 20 | 0.0 | 0.0 | 0.00 | 0.00 | 0.00 | 74 | 1019.4 |
| 20260507210141 | 4 | 21 | 0.0 | 0.0 | 0.00 | 0.00 | 0.00 | 73 | 1019.3 |
| 20260507205142 | 5 | 20 | 0.0 | 1.6 | 0.00 | 0.00 | 0.00 | 72 | 1019.2 |
| 20260507204135 | 5 | 20 | 0.0 | 4.8 | 0.00 | 0.00 | 0.00 | 71 | 1019.2 |
| 20260507203128 | 5 | 20 | 3.2 | 4.8 | 0.00 | 0.00 | 0.00 | 72 | 1019.1 |
| 20260507202127 | 5 | 20 | 3.2 | 4.8 | 0.00 | 0.00 | 0.00 | 72 | 1018.9 |
| 20260507201137 | 5 | 20 | 4.8 | 6.4 | 0.00 | 0.00 | 0.00 | 70 | 1018.9 |
| 20260507200130 | 5 | 348 | 4.8 | 6.4 | 0.00 | 0.00 | 0.00 | 68 | 1018.8 |
| 20260507195130 | 5 | 347 | 4.8 | 6.4 | 0.00 | 0.00 | 0.00 | 67 | 1018.8 |
| 20260507194211 | 6 | 355 | 4.8 | 6.4 | 0.00 | 0.00 | 0.00 | 65 | 1018.7 |
| 20260507193141 | 6 | 336 | 3.2 | 4.8 | 0.00 | 0.00 | 0.00 | 63 | 1018.5 |
| 20260507192135 | 7 | 323 | 3.2 | 6.4 | 0.00 | 0.00 | 0.00 | 60 | 1018.4 |
| 20260507191135 | 8 | 320 | 3.2 | 6.4 | 0.00 | 0.00 | 0.00 | 57 | 1018.3 |
| 20260507190129 | 9 | 319 | 3.2 | 6.4 | 0.00 | 0.00 | 0.00 | 54 | 1018.2 |
| 20260507185150 | 10 | 338 | 4.8 | 6.4 | 0.00 | 0.00 | 0.00 | 50 | 1018.0 |
| 20260507184137 | 11 | 296 | 4.8 | 8.0 | 0.00 | 0.00 | 0.00 | 46 | 1017.8 |
| 20260507183130 | 11 | 306 | 4.8 | 9.7 | 0.00 | 0.00 | 0.00 | 46 | 1017.7 |
| 20260507182153 | 11 | 311 | 6.4 | 12.9 | 0.00 | 0.00 | 0.00 | 43 | 1017.7 |
| 20260507181126 | 12 | 313 | 6.4 | 14.5 | 0.00 | 0.00 | 0.00 | 43 | 1017.6 |
| 20260507180140 | 12 | 294 | 8.0 | 17.7 | 0.00 | 0.00 | 0.00 | 42 | 1017.6 |
| 20260507175132 | 12 | 278 | 12.9 | 19.3 | 0.00 | 0.00 | 0.00 | 41 | 1017.5 |
| 20260507174131 | 12 | 295 | 11.3 | 17.7 | 0.00 | 0.00 | 0.00 | 41 | 1017.6 |
| 20260507173143 | 13 | 286 | 11.3 | 16.1 | 0.00 | 0.00 | 0.00 | 40 | 1017.5 |
| 20260507172146 | 13 | 297 | 8.0 | 16.1 | 0.00 | 0.00 | 0.00 | 39 | 1017.5 |
| 20260507171142 | 13 | 305 | 8.0 | 14.5 | 0.00 | 0.00 | 0.00 | 38 | 1017.4 |
| 20260507170129 | 13 | 313 | 6.4 | 12.9 | 0.00 | 0.00 | 0.00 | 37 | 1017.3 |
| 20260507165131 | 13 | 291 | 4.8 | 17.7 | 0.00 | 0.00 | 0.00 | 38 | 1017.3 |
| 20260507164144 | 13 | 351 | 8.0 | 14.5 | 0.00 | 0.00 | 0.00 | 39 | 1017.3 |
| 20260507163206 | 13 | 321 | 11.3 | 17.7 | 0.00 | 0.00 | 0.00 | 37 | 1017.3 |
| 20260507162138 | 13 | 322 | 11.3 | 17.7 | 0.00 | 0.00 | 0.00 | 36 | 1017.2 |
| 20260507161151 | 13 | 345 | 6.4 | 16.1 | 0.00 | 0.00 | 0.00 | 37 | 1017.1 |
| 20260507160142 | 13 | 314 | 11.3 | 19.3 | 0.00 | 0.00 | 0.00 | 35 | 1017.2 |
| 20260507155135 | 13 | 304 | 12.9 | 19.3 | 0.00 | 0.00 | 0.00 | 35 | 1017.2 |
| 20260507154156 | 13 | 321 | 11.3 | 20.9 | 0.00 | 0.00 | 0.00 | 35 | 1017.1 |
| 20260507153145 | 13 | 331 | 12.9 | 22.5 | 0.00 | 0.00 | 0.00 | 35 | 1017.1 |
| 20260507152149 | 13 | 298 | 12.9 | 20.9 | 0.00 | 0.00 | 0.00 | 36 | 1017.0 |
| 20260507151144 | 13 | 289 | 12.9 | 24.1 | 0.00 | 0.00 | 0.00 | 36 | 1017.0 |
| 20260507150138 | 13 | 329 | 11.3 | 19.3 | 0.00 | 0.00 | 0.00 | 33 | 1017.0 |
| 20260507145130 | 13 | 304 | 12.9 | 22.5 | 0.00 | 0.00 | 0.00 | 35 | 1016.9 |
| 20260507144129 | 13 | 323 | 17.7 | 25.7 | 0.00 | 0.00 | 0.00 | 34 | 1016.9 |
| 20260507143140 | 13 | 286 | 12.9 | 22.5 | 0.00 | 0.00 | 0.00 | 37 | 1016.9 |
| 20260507142141 | 13 | 290 | 16.1 | 24.1 | 0.00 | 0.00 | 0.00 | 35 | 1016.8 |
| 20260507141135 | 13 | 311 | 16.1 | 25.7 | 0.00 | 0.00 | 0.00 | 35 | 1016.8 |
| 20260507140128 | 13 | 264 | 14.5 | 30.6 | 0.00 | 0.00 | 0.00 | 35 | 1016.8 |
| 20260507135145 | 14 | 292 | 17.7 | 24.1 | 0.00 | 0.00 | 0.00 | 38 | 1016.8 |
| 20260507134138 | 14 | 282 | 12.9 | 24.1 | 0.00 | 0.00 | 0.00 | 35 | 1016.8 |
| 20260507133130 | 13 | 298 | 16.1 | 25.7 | 0.00 | 0.00 | 0.00 | 37 | 1016.8 |
| 20260507132129 | 13 | 271 | 14.5 | 29.0 | 0.00 | 0.00 | 0.00 | 37 | 1016.8 |
| 20260507131209 | 13 | 301 | 16.1 | 29.0 | 0.00 | 0.00 | 0.00 | 39 | 1016.8 |
| 20260507130200 | 13 | 307 | 17.7 | 29.0 | 0.00 | 0.00 | 0.00 | 38 | 1016.8 |
| 20260507125141 | 14 | 297 | 16.1 | 25.7 | 0.00 | 0.00 | 0.00 | 36 | 1016.7 |
| 20260507124131 | 13 | 308 | 16.1 | 25.7 | 0.00 | 0.00 | 0.00 | 36 | 1016.7 |
| 20260507123138 | 13 | 311 | 16.1 | 24.1 | 0.00 | 0.00 | 0.00 | 35 | 1016.7 |
| 20260507122158 | 13 | 306 | 16.1 | 24.1 | 0.00 | 0.00 | 0.00 | 37 | 1016.6 |
| 20260507121126 | 14 | 284 | 12.9 | 25.7 | 0.00 | 0.00 | 0.00 | 38 | 1016.5 |
| 20260507120126 | 13 | 294 | 17.7 | 27.4 | 0.00 | 0.00 | 0.00 | 40 | 1016.5 |
| 20260507115138 | 13 | 289 | 19.3 | 25.7 | 0.00 | 0.00 | 0.00 | 42 | 1016.6 |
| 20260507114130 | 13 | 303 | 17.7 | 24.1 | 0.00 | 0.00 | 0.00 | 43 | 1016.5 |
| 20260507113152 | 13 | 273 | 16.1 | 25.7 | 0.00 | 0.00 | 0.00 | 43 | 1016.5 |
| 20260507112152 | 13 | 284 | 14.5 | 24.1 | 0.00 | 0.00 | 0.00 | 40 | 1016.4 |
| 20260507111138 | 13 | 297 | 17.7 | 24.1 | 0.00 | 0.00 | 0.00 | 44 | 1016.4 |
| 20260507110141 | 13 | 274 | 17.7 | 27.4 | 0.00 | 0.00 | 0.00 | 42 | 1016.5 |
| 20260507105130 | 13 | 290 | 17.7 | 24.1 | 0.00 | 0.00 | 0.00 | 47 | 1016.4 |
| 20260507104138 | 13 | 290 | 16.1 | 24.1 | 0.00 | 0.00 | 0.00 | 46 | 1016.4 |
| 20260507103145 | 13 | 261 | 14.5 | 20.9 | 0.00 | 0.00 | 0.00 | 46 | 1016.4 |
| 20260507102135 | 13 | 341 | 14.5 | 19.3 | 0.00 | 0.00 | 0.00 | 45 | 1016.3 |
| 20260507101125 | 13 | 313 | 14.5 | 22.5 | 0.00 | 0.00 | 0.00 | 43 | 1016.2 |
| 20260507100205 | 12 | 291 | 16.1 | 25.7 | 0.00 | 0.00 | 0.00 | 48 | 1016.2 |
| 20260507095136 | 12 | 282 | 14.5 | 22.5 | 0.00 | 0.00 | 0.00 | 51 | 1016.1 |
| 20260507094132 | 12 | 290 | 14.5 | 22.5 | 0.00 | 0.00 | 0.00 | 50 | 1016.0 |
| 20260507093154 | 12 | 293 | 14.5 | 22.5 | 0.00 | 0.00 | 0.00 | 54 | 1015.9 |
| 20260507092139 | 12 | 297 | 14.5 | 17.7 | 0.00 | 0.00 | 0.00 | 51 | 1015.8 |
| 20260507091139 | 12 | 254 | 14.5 | 20.9 | 0.00 | 0.00 | 0.00 | 54 | 1015.7 |
| 20260507090140 | 12 | 292 | 14.5 | 20.9 | 0.00 | 0.00 | 0.00 | 58 | 1015.8 |
| 20260507085137 | 12 | 275 | 12.9 | 20.9 | 0.00 | 0.00 | 0.00 | 62 | 1015.8 |
| 20260507084127 | 12 | 240 | 12.9 | 19.3 | 0.00 | 0.00 | 0.00 | 63 | 1015.8 |
| 20260507083203 | 12 | 254 | 14.5 | 19.3 | 0.00 | 0.00 | 0.00 | 62 | 1015.6 |
| 20260507082133 | 12 | 276 | 14.5 | 17.7 | 0.00 | 0.00 | 0.00 | 61 | 1015.5 |
| 20260507081150 | 11 | 259 | 11.3 | 16.1 | 0.00 | 0.00 | 0.00 | 60 | 1015.5 |
| 20260507080139 | 11 | 275 | 12.9 | 19.3 | 0.00 | 0.00 | 0.00 | 63 | 1015.4 |
| 20260507075130 | 11 | 241 | 12.9 | 17.7 | 0.00 | 0.00 | 0.00 | 67 | 1015.4 |
| 20260507074126 | 11 | 228 | 11.3 | 16.1 | 0.00 | 0.00 | 0.00 | 65 | 1015.2 |
| 20260507073144 | 11 | 252 | 11.3 | 16.1 | 0.00 | 0.00 | 0.00 | 68 | 1015.1 |
| 20260507072131 | 11 | 213 | 9.7 | 12.9 | 0.00 | 0.00 | 0.00 | 71 | 1015.1 |
| 20260507071206 | 10 | 234 | 9.7 | 14.5 | 0.00 | 0.00 | 0.00 | 75 | 1015.0 |
| 20260507070133 | 10 | 256 | 6.4 | 11.3 | 0.00 | 0.00 | 0.00 | 76 | 1014.9 |
| 20260507065127 | 10 | 207 | 9.7 | 12.9 | 0.00 | 0.00 | 0.00 | 77 | 1014.8 |
| 20260507064145 | 10 | 237 | 11.3 | 16.1 | 0.00 | 0.00 | 0.00 | 77 | 1014.7 |
| 20260507063136 | 10 | 244 | 12.9 | 16.1 | 0.00 | 0.00 | 0.00 | 80 | 1014.7 |
| 20260507062154 | 10 | 256 | 9.7 | 17.7 | 0.00 | 0.00 | 0.00 | 82 | 1014.6 |
| 20260507061211 | 9 | 234 | 12.9 | 17.7 | 0.00 | 0.00 | 0.00 | 85 | 1014.6 |
| 20260507060136 | 8 | 232 | 11.3 | 16.1 | 0.00 | 0.00 | 0.00 | 87 | 1014.6 |
| 20260507055149 | 8 | 230 | 4.8 | 11.3 | 0.00 | 0.00 | 0.00 | 89 | 1014.5 |
| 20260507054140 | 7 | 223 | 6.4 | 8.0 | 0.00 | 0.00 | 0.00 | 92 | 1014.4 |
| 20260507053201 | 6 | 207 | 3.2 | 4.8 | 0.00 | 0.00 | 0.00 | 93 | 1014.3 |
| 20260507052129 | 5 | 217 | 3.2 | 4.8 | 0.00 | 0.00 | 0.00 | 93 | 1014.2 |
| 20260507051140 | 4 | 355 | 0.0 | 3.2 | 0.00 | 0.00 | 0.00 | 94 | 1014.1 |
| 20260507050140 | 3 | 355 | 0.0 | 3.2 | 0.00 | 0.00 | 0.00 | 94 | 1014.1 |
| 20260507045132 | 3 | 355 | 0.0 | 1.6 | 0.00 | 0.00 | 0.00 | 95 | 1013.9 |
| 20260507044151 | 2 | 355 | 0.0 | 0.0 | 0.00 | 0.00 | 0.00 | 94 | 1013.9 |
| 20260507043142 | 1 | 355 | 0.0 | 0.0 | 0.00 | 0.00 | 0.00 | 94 | 1013.9 |
| 20260507042128 | 1 | 355 | 0.0 | 0.0 | 0.00 | 0.00 | 0.00 | 94 | 1013.7 |
| 20260507041147 | 1 | 355 | 0.0 | 0.0 | 0.00 | 0.00 | 0.00 | 93 | 1013.8 |
| 20260507040138 | 1 | 355 | 0.0 | 0.0 | 0.00 | 0.00 | 0.00 | 93 | 1013.6 |
| 20260507035130 | 1 | 355 | 0.0 | 0.0 | 0.00 | 0.00 | 0.00 | 93 | 1013.6 |
| 20260507034152 | 0 | 355 | 0.0 | 0.0 | 0.00 | 0.00 | 0.00 | 93 | 1013.5 |
| 20260507033144 | 0 | 355 | 0.0 | 0.0 | 0.00 | 0.00 | 0.00 | 93 | 1013.6 |
| 20260507032135 | 0 | 355 | 0.0 | 0.0 | 0.00 | 0.00 | 0.00 | 92 | 1013.5 |
| 20260507031126 | 0 | 355 | 0.0 | 0.0 | 0.00 | 0.00 | 0.00 | 92 | 1013.5 |
| 20260507030148 | 0 | 355 | 0.0 | 0.0 | 0.00 | 0.00 | 0.00 | 91 | 1013.4 |
| 20260507025205 | 0 | 355 | 0.0 | 0.0 | 0.00 | 0.00 | 0.00 | 91 | 1013.4 |
| 20260507024206 | 0 | 355 | 0.0 | 0.0 | 0.00 | 0.00 | 0.00 | 91 | 1013.4 |
| 20260507023136 | 0 | 355 | 0.0 | 0.0 | 0.00 | 0.00 | 0.00 | 91 | 1013.3 |
| 20260507022128 | 0 | 355 | 0.0 | 0.0 | 0.00 | 0.00 | 0.00 | 91 | 1013.4 |
| 20260507021128 | 0 | 355 | 0.0 | 0.0 | 0.00 | 0.00 | 0.00 | 90 | 1013.3 |
| 20260507020138 | 0 | 355 | 0.0 | 0.0 | 0.00 | 0.00 | 0.00 | 90 | 1013.2 |
| 20260507015155 | 0 | 355 | 0.0 | 0.0 | 0.00 | 0.00 | 0.00 | 90 | 1013.2 |
| 20260507014135 | 0 | 355 | 0.0 | 0.0 | 0.00 | 0.00 | 0.00 | 89 | 1013.1 |
| 20260507013137 | 0 | 355 | 0.0 | 0.0 | 0.00 | 0.00 | 0.00 | 89 | 1013.1 |
| 20260507012128 | 0 | 355 | 0.0 | 0.0 | 0.00 | 0.00 | 0.00 | 88 | 1013.1 |
| 20260507011125 | 0 | 355 | 0.0 | 0.0 | 0.00 | 0.00 | 0.00 | 88 | 1013.1 |
| 20260507010143 | 1 | 355 | 0.0 | 0.0 | 0.00 | 0.00 | 0.00 | 87 | 1013.0 |
| 20260507005135 | 1 | 355 | 0.0 | 0.0 | 0.00 | 0.00 | 0.00 | 87 | 1013.0 |
| 20260507004127 | 1 | 355 | 0.0 | 0.0 | 0.00 | 0.00 | 0.00 | 86 | 1013.0 |
| 20260507003146 | 1 | 355 | 0.0 | 0.0 | 0.00 | 0.00 | 0.00 | 85 | 1012.9 |
| 20260507002131 | 1 | 355 | 0.0 | 0.0 | 0.00 | 0.00 | 0.00 | 85 | 1013.0 |
| 20260507001130 | 1 | 355 | 0.0 | 0.0 | 0.00 | 0.00 | 0.00 | 84 | 1012.9 |
| 20260507000138 | 1 | 355 | 0.0 | 0.0 | 0.00 | 0.00 | 0.00 | 83 | 1012.9 |
| 20260506235130 | 1 | 355 | 0.0 | 0.0 | 0.00 | 0.00 | 0.00 | 82 | 1012.9 |
| 20260506234133 | 1 | 355 | 0.0 | 0.0 | 0.00 | 0.00 | 0.00 | 82 | 1012.8 |
| 20260506233126 | 2 | 355 | 0.0 | 0.0 | 0.00 | 0.00 | 0.00 | 81 | 1012.8 |
| 20260506232146 | 2 | 355 | 0.0 | 3.2 | 0.00 | 0.00 | 0.00 | 81 | 1012.8 |
| 20260506231132 | 2 | 355 | 0.0 | 0.0 | 0.00 | 0.00 | 0.00 | 80 | 1012.8 |
| 20260506230142 | 2 | 355 | 1.6 | 4.8 | 0.00 | 0.00 | 0.00 | 81 | 1012.7 |
| 20260506225146 | 2 | 344 | 3.2 | 4.8 | 0.00 | 0.00 | 0.00 | 80 | 1012.7 |
| 20260506224135 | 2 | 334 | 3.2 | 4.8 | 0.00 | 0.00 | 0.00 | 79 | 1012.7 |
| 20260506223149 | 2 | 342 | 0.0 | 0.0 | 0.00 | 0.00 | 0.00 | 78 | 1012.7 |
| 20260506222131 | 2 | 342 | 0.0 | 0.0 | 0.00 | 0.00 | 0.00 | 77 | 1012.5 |
| 20260506221143 | 2 | 342 | 0.0 | 0.0 | 0.00 | 0.00 | 0.00 | 77 | 1012.6 |
| 20260506220131 | 3 | 342 | 0.0 | 3.2 | 0.00 | 0.00 | 0.00 | 77 | 1012.6 |
| 20260506215153 | 3 | 336 | 1.6 | 4.8 | 0.00 | 0.00 | 0.00 | 77 | 1012.5 |